Regional Weather Roundup
Issued by NWS Sioux Falls, SD

Home | Current Version | Previous Version | Text Only | Print | Product List | Glossary On
Versions: 1 2 3 4 5 6 7 8 9 10 11 12 13 14 15 16 17 18 19 20 21 22 23 24 25 26 27 28 29 30 31 32 33 34 35 36 37 38 39 40 41 42 43 44 45 46 47 48 49 50
000
ASUS43 KFSD 310802
RWRFSD

WEATHER ROUNDUP FOR SE SOUTH DAKOTA/SW MINNESOTA/NW IOWA
NATIONAL WEATHER SERVICE SIOUX FALLS SD
300 AM CDT FRI OCT 31 2014

NOTE: "FAIR" INDICATES FEW OR NO CLOUDS BELOW 12,000 FEET WITH NO
SIGNIFICANT WEATHER AND OR OBSTRUCTIONS TO VISIBILITY.


SDZ038>040-050-052>070-310900-
SOUTHEAST SOUTH DAKOTA

CITY           SKY/WX    TMP DP  RH WIND       PRES   REMARKS
CHAMBERLAIN    PTCLDY    24  19  81 N3        30.57S
HURON          CLEAR     18  15  88 NW8       30.58R WCI   8
MADISON        FAIR      23  19  86 N10       30.50S WCI  12
MITCHELL       CLEAR     24  20  84 N9        30.57S WCI  14
SIOUX FALLS    CLEAR     25  18  74 N9        30.50S WCI  15
WINNER         FAIR      26  19  74 NE3       30.56S
YANKTON        CLEAR     27  19  74 N9        30.55S WCI  17
$$

MNZ071-072-080-081-089-090-097-098-310900-
SOUTHWEST MINNESOTA

CITY           SKY/WX    TMP DP  RH WIND       PRES   REMARKS
FAIRMONT       CLEAR     28  16  59 N15       30.44R WCI  17
JACKSON        CLEAR     28  21  74 N12G22    30.46R WCI  18
LUVERNE        CLEAR     30  21  69 N10       30.50R WCI  21
MARSHALL       FAIR      25  18  74 N12       30.50S WCI  14
MONTEVIDEO     CLEAR     25  21  86 N9        30.53F WCI  15
PIPESTONE      CLEAR     27  19  74 NE12      30.48S WCI  16
REDWOOD FALLS  CLEAR     28  19  69 N10G20    30.50R WCI  19
TRACY          CLEAR     26  22  85 N9        30.50S WCI  17
WINDOM         CLEAR     27  21  80 NW15      30.47R WCI  15
WORTHINGTON    CLEAR     25  19  80 N13       30.48R WCI  13
$$

IAZ001>003-012>014-020>022-031-032-NEZ013-014-SDZ071-310900-
NORTHWEST IOWA

CITY           SKY/WX    TMP DP  RH WIND       PRES   REMARKS
CHEROKEE       CLEAR     29  22  74 N10G16    30.46F WCI  20
DENISON        PTCLDY    32  19  59 N17G26    30.43R WCI  21
ESTHERVILLE    CLEAR     27  19  72 N15       30.44R WCI  15
LE MARS        CLEAR     28  21  74 N10       30.50S WCI  19
ORANGE CITY    CLEAR     28  21  74 N10       30.48S WCI  19
SHELDON        CLEAR     25  19  80 N6        30.47R WCI  18
SIOUX CITY     FAIR      31  21  66 N15       30.51R WCI  20
SPENCER        CLEAR     29  20  69 N15       30.46R WCI  18
STORM LAKE     CLEAR     28  19  69 N16G23    30.45R WCI  17
$$

ABBREVIATIONS USED IN REMARKS
   TC - TEMPERATURE IN CELSIUS
  WCI - WIND CHILL INDEX
   HX - HEAT INDEX
  VSB - VISIBILITY




USA.gov is the U.S. government's official web portal to all federal, state and local government web resources and services.